GW2336 Weather Reports


time (UTC)temp
F
wind
direction
speed
knots
gust
knots
rain 1hr
in
rain 24hr
in
rain mn
in
humidity
%
barometer
mb
20260506210029 84 305 3.5 8.7 0.00 0.00 0.00 17 1013.8
20260506200035 83 276 1.7 11.3 0.00 0.00 0.00 19 1015.0
20260506190034 80 307 3.5 8.7 0.00 0.00 0.00 21 1016.3
20260506180031 77 280 1.7 7.0 0.00 0.00 0.00 25 1017.1
20260506170034 73 295 1.7 5.2 0.00 0.00 0.00 28 1017.6
20260506160035 70 43 1.7 3.5 0.00 0.00 0.00 36 1017.5
20260506150039 66 49 0.9 2.6 0.00 0.00 0.00 40 1017.6
20260506140049 64 55 1.7 4.3 0.00 0.00 0.00 41 1017.5
20260506130054 62 61 1.7 3.5 0.00 0.00 0.00 44 1016.9
20260506120110 63 87 1.7 3.5 0.00 0.00 0.00 39 1016.0
20260506110054 66 171 0.0 2.6 0.00 0.00 0.00 37 1015.6
20260506100040 69 61 1.7 4.3 0.00 0.00 0.00 30 1015.0
20260506090106 68 89 4.3 7.8 0.00 0.00 0.00 31 1015.0
20260506080113 65 96 1.7 3.5 0.00 0.00 0.00 38 1015.4
20260506040031 77 102 7.0 13.0 0.00 0.00 0.00 23 1014.4
20260506030038 78 124 7.8 13.9 0.00 0.00 0.00 21 1013.5
20260506020106 80 96 7.0 19.1 0.00 0.00 0.00 21 1012.7
20260506010037 82 80 9.6 17.4 0.00 0.00 0.00 18 1011.6
20260506000054 85 119 12.2 21.7 0.00 0.00 0.00 13 1011.0
20260505230046 88 109 12.2 25.2 0.00 0.00 0.00 9 1010.4
20260505220034 91 84 7.8 17.4 0.00 0.00 0.00 8 1010.8